Location: Smoky Mountain Stargaze
(35.4252°N, 83.3329°W)
Time: 02:06:18
(UTC-05:00)

Amateur Radio Satellites - All Passes

Search period start: 18 December 2017 01:36
Search period end: 19 December 2017 01:36
Location: Smoky Mountain Stargaze, 35.4252°N, 83.3329°W

Satellite Date Start Highest point End Downlink Frequencies (MHz)
Time Altitude Azimuth
YUBILEINY 18 Dec 01:36:45 01:42:17 19° 80° (E) 01:47:49 435.215
BUGSAT 1 18 Dec 01:41:07 01:45:11 86° 98° (E) 01:49:17 437.445
NANOSAT C BR1 18 Dec 01:45:13 01:47:50 16° 292° (WNW) 01:50:26 145.865
UKube-1 18 Dec 01:53:22 01:57:40 76° 76° (ENE) 02:02:00 .
Gurwin Techsat 1B 18 Dec 01:58:19 02:03:26 46° 99° (E) 02:08:29 435.225
PCSat 18 Dec 02:04:24 02:05:47 11° 45° (NE) 02:07:10 145.827
JUGNU 18 Dec 02:08:18 02:10:34 12° 168° (SSE) 02:12:49 437.505
ITUPSAT 1 18 Dec 02:14:51 02:18:01 18° 66° (ENE) 02:21:10 437.325
50 SAT 18 Dec 02:15:45 02:18:12 20° 263° (W) 02:20:39 437.505
DX 1 18 Dec 02:17:34 02:21:29 32° 262° (W) 02:25:26 434.975-435.025
FALCONSAT 3 18 Dec 02:23:37 02:26:23 20° 207° (SSW) 02:29:08 435.103
Oscar 19 18 Dec 02:26:10 02:31:20 67° 286° (WNW) 02:36:29 437.125/150
MOZHAYETS 4 18 Dec 02:26:25 02:30:29 34° 72° (ENE) 02:34:36
AO-91 18 Dec 03:03:35 03:05:34 15° 290° (WNW) 03:07:33 145.960
BEESAT 18 Dec 03:19:41 03:24:26 89° 254° (WSW) 03:29:12 436.000
YUBILEINY 18 Dec 03:29:09 03:37:58 78° 277° (W) 03:46:52 435.215
AO-7 18 Dec 03:31:28 03:39:25 45° 101° (E) 03:47:18 .
BEESAT 3 18 Dec 03:33:31 03:35:27 13° 48° (NE) 03:37:20 437.485
Gurwin Techsat 1B 18 Dec 03:39:14 03:42:59 20° 294° (WNW) 03:46:43 435.225
PCSat 18 Dec 03:44:39 03:50:05 76° 63° (ENE) 03:55:28 145.827
ITAMSAT 1 18 Dec 03:46:46 03:51:29 35° 98° (E) 03:56:10 435.822/435.867
ITUPSAT 1 18 Dec 03:51:00 03:55:28 41° 261° (W) 03:59:58 437.325
M-CUBED/EXP-1 PRIME 18 Dec 03:51:02 03:55:02 35° 102° (ESE) 03:58:45 437.505
KKS-1 18 Dec 03:51:30 03:52:50 11° 64° (ENE) 03:54:10 437.445
JUGNU 18 Dec 03:55:10 03:58:47 17° 178° (S) 04:02:24 437.505
CUBESAT XI-V 18 Dec 03:59:07 04:03:45 82° 78° (ENE) 04:08:28 437.345
MOZHAYETS 4 18 Dec 04:04:28 04:07:41 19° 266° (W) 04:10:56
BEESAT 2 18 Dec 04:22:53 04:24:43 13° 47° (NE) 04:26:32 435.950
SRMSAT 18 Dec 04:51:20 04:53:22 12° 167° (SSE) 04:55:24 437.500
DOVE 4 18 Dec 04:59:09 05:03:08 34° 97° (E) 05:06:57 437.250
BEESAT 3 18 Dec 05:09:27 05:13:14 49° 245° (WSW) 05:16:56 437.485
KKS-1 18 Dec 05:24:24 05:28:49 61° 259° (W) 05:33:14 437.445
AO-7 18 Dec 05:24:28 05:31:56 38° 297° (WNW) 05:39:24 .
NO-84 18 Dec 05:25:08 05:28:00 87° 311° (NW) 05:31:03 435.350 FM
M-CUBED/EXP-1 PRIME 18 Dec 05:26:04 05:29:03 18° 298° (WNW) 05:31:55 437.505
ITAMSAT 1 18 Dec 05:26:38 05:30:42 24° 293° (WNW) 05:34:47 435.822/435.867
PCSat 18 Dec 05:31:01 05:32:43 11° 258° (WSW) 05:34:26 145.827
YUBILEINY 18 Dec 05:32:26 05:36:14 13° 297° (WNW) 05:40:03 435.215
XW-2C 18 Dec 05:39:51 05:41:57 14° 93° (E) 05:44:02 145.795 - 145.815
CUTE-I 18 Dec 05:41:37 05:44:33 15° 92° (E) 05:47:28 437.470
JUGNU 18 Dec 05:43:54 05:47:01 15° 188° (S) 05:50:10 437.505
STARS 18 Dec 05:56:09 06:00:32 71° 258° (WSW) 06:04:54 437.465
STRAND 1 18 Dec 05:57:57 06:00:26 14° 64° (ENE) 06:02:56 437.568
BEESAT 2 18 Dec 05:58:50 06:02:46 55° 244° (WSW) 06:06:37 435.950
NUDT-PHONESAT 18 Dec 06:16:07 06:19:20 26° 96° (E) 06:22:31 437.300
LilacSat-2 18 Dec 06:19:51 06:23:39 53° 99° (E) 06:27:26 437.200
KAITUO 1B 18 Dec 06:26:44 06:30:18 39° 99° (E) 06:33:51 145.475/437.950
XW-2D 18 Dec 06:28:41 06:32:32 67° 101° (E) 06:36:19 145.860 - 145.880
AO-85 18 Dec 06:29:40 06:34:34 72° 60° (ENE) 06:39:47 145.980
DOVE 4 18 Dec 06:37:47 06:40:29 16° 293° (WNW) 06:43:07 437.250
SRMSAT 18 Dec 06:38:01 06:41:45 17° 177° (S) 06:45:31 437.500
XW-2B 18 Dec 06:44:43 06:48:34 77° 284° (WNW) 06:52:23 145.730 - 145.750
XW-2F 18 Dec 06:53:16 06:57:03 62° 284° (WNW) 07:00:48 145.980 - 146.000
SEEDS 18 Dec 07:07:22 07:10:47 23° 95° (E) 07:14:11 437.485
XW-2C 18 Dec 07:12:44 07:16:10 31° 287° (WNW) 07:19:35 145.795 - 145.815
AAUSAT CUBESAT 2 18 Dec 07:15:58 07:17:06 11° 91° (E) 07:18:15 437.432
FO-29 18 Dec 07:17:18 07:24:14 37° 67° (ENE) 07:31:10 435.910
CUTE-I 18 Dec 07:19:42 07:24:54 57° 287° (WNW) 07:30:05 437.470
UWE-3 18 Dec 07:22:45 07:26:00 20° 95° (E) 07:29:18 435.000/436.395/437.385
XW-2A 18 Dec 07:23:52 07:24:58 11° 93° (E) 07:26:05 145.665 - 145.685
CUBEBUG 2 18 Dec 07:30:44 07:34:55 45° 99° (E) 07:39:12 437.445
STRAND 1 18 Dec 07:33:58 07:39:02 64° 259° (WSW) 07:44:07 437.568
HO-68 18 Dec 07:37:33 07:44:44 77° 104° (ESE) 07:51:52 435.675
CUTE 1.7 + AOD 2 18 Dec 07:37:34 07:41:52 83° 280° (W) 07:46:06 437.475
ZACube-1 18 Dec 07:39:15 07:41:55 16° 93° (E) 07:44:36 437.345
O/OREOS (USA 219) 18 Dec 07:39:56 07:44:23 53° 106° (ESE) 07:48:50 437.305
NUDT-PHONESAT 18 Dec 07:50:31 07:52:55 16° 291° (WNW) 07:55:18 437.300
Oscar 11 18 Dec 07:53:05 07:54:28 11° 92° (E) 07:55:51 .
KAITUO 1B 18 Dec 08:02:31 08:03:51 12° 293° (WNW) 08:05:11 145.475/437.950
AO-73 18 Dec 08:09:36 08:13:31 30° 97° (E) 08:17:29 145.935
AO-85 18 Dec 08:12:31 08:14:31 12° 253° (WSW) 08:16:33 145.980
UNISAT 6 18 Dec 08:20:33 08:21:03 10° 65° (ENE) 08:21:32 437.425
SRMSAT 18 Dec 08:26:41 08:30:12 16° 187° (S) 08:33:42 437.500
SEEDS 18 Dec 08:42:56 08:46:20 24° 290° (WNW) 08:49:42 437.485
AAUSAT CUBESAT 2 18 Dec 08:48:46 08:52:46 47° 286° (WNW) 08:56:44 437.432
XW-2A 18 Dec 08:54:40 08:57:43 30° 287° (WNW) 09:00:45 145.665 - 145.685
UWE-3 18 Dec 08:58:34 09:02:26 31° 288° (WNW) 09:06:22 435.000/436.395/437.385
FO-29 18 Dec 09:01:38 09:08:57 45° 263° (W) 09:16:23 435.910
ISS 18 Dec 09:02:59 09:04:43 14° 127° (SE) 09:06:27 437.550
CUBEBUG 2 18 Dec 09:08:55 09:11:08 14° 292° (WNW) 09:13:23 437.445
DELFI C3 18 Dec 09:13:12 09:15:45 16° 94° (E) 09:18:15 145.870
ZACube-1 18 Dec 09:14:09 09:18:17 40° 287° (WNW) 09:22:28 437.345
PRISM 18 Dec 09:18:31 09:20:29 13° 66° (ENE) 09:22:27 437.425
O/OREOS (USA 219) 18 Dec 09:21:47 09:24:06 14° 302° (WNW) 09:26:26 437.305
Oscar 11 18 Dec 09:26:36 09:30:51 51° 285° (WNW) 09:35:03 .
HO-68 18 Dec 09:27:03 09:31:38 19° 301° (WNW) 09:36:14 435.675
nSIGHT-1 18 Dec 09:40:49 09:43:56 54° 135° (SE) 09:47:05 .
AO-73 18 Dec 09:46:14 09:49:31 21° 290° (WNW) 09:52:51 145.935
TIGRISAT 18 Dec 09:48:29 09:52:45 75° 258° (WSW) 09:57:00 435.000
UNISAT 6 18 Dec 09:52:59 09:57:12 59° 259° (W) 10:01:25 437.425
Max Valier Satellite 18 Dec 10:05:06 10:08:45 51° 99° (E) 10:12:24 145.860
AIST 2D 18 Dec 10:05:59 10:07:36 13° 69° (ENE) 10:09:13 435.315
EO-88 18 Dec 10:23:19 10:26:57 59° 100° (E) 10:30:32 145.990 - 145.960
QB50P2 18 Dec 10:32:45 10:34:08 11° 66° (ENE) 10:35:31 145.880/145.840
ISS 18 Dec 10:37:43 10:40:53 45° 322° (NW) 10:44:04 437.550
DELFI C3 18 Dec 10:47:06 10:50:28 28° 288° (WNW) 10:53:50 145.870
PRISM 18 Dec 10:51:22 10:55:19 43° 260° (W) 10:59:18 437.425
NANOSAT C BR1 18 Dec 10:58:18 11:01:09 18° 68° (ENE) 11:03:59 145.865
EO-79 18 Dec 11:15:28 11:19:12 33° 72° (ENE) 11:22:57 145.935-145.965
nSIGHT-1 18 Dec 11:18:15 11:20:21 16° 331° (NNW) 11:22:28 .
AIST 2D 18 Dec 11:37:20 11:40:26 29° 263° (W) 11:43:34 435.315
POLYITAN 1 18 Dec 11:39:11 11:43:19 65° 76° (ENE) 11:47:28 437.675
SPROUT 18 Dec 11:59:30 12:01:55 15° 93° (E) 12:04:20 437.525
NO-84 18 Dec 11:59:59 12:02:30 17° 36° (NE) 12:05:09 435.350 FM
DUCHIFAT 1 18 Dec 12:03:24 12:07:33 84° 258° (WSW) 12:11:44 145.980
Oscar 19 18 Dec 12:03:32 12:06:12 14° 63° (ENE) 12:08:50 437.125/150
QB50P2 18 Dec 12:05:21 12:09:25 51° 260° (W) 12:13:32 145.880/145.840
ESTCUBE 1 18 Dec 12:11:12 12:15:46 80° 282° (WNW) 12:20:16 437.505/2401.250
LO-87 18 Dec 12:13:53 12:17:12 39° 286° (WNW) 12:20:32 145.935 - 145.965
AO-91 18 Dec 12:20:36 12:23:45 18° 70° (ENE) 12:26:43 145.960
BUGSAT 1 18 Dec 12:27:41 12:31:24 36° 73° (ENE) 12:35:05 437.445
NANOSAT C BR1 18 Dec 12:32:54 12:36:36 30° 263° (W) 12:40:18 145.865
RS-15 18 Dec 12:45:50 12:55:36 29° 103° (ESE) 13:05:22 29.354- 29.394
EO-79 18 Dec 12:52:20 12:55:00 16° 266° (W) 12:57:41 145.935-145.965
Gurwin Techsat 1B 18 Dec 13:16:15 13:21:25 55° 73° (ENE) 13:26:36 435.225
VELOX 1 18 Dec 13:25:56 13:30:21 89° 267° (W) 13:34:43 145.980
SPROUT 18 Dec 13:33:58 13:37:54 37° 287° (WNW) 13:41:49 437.525
50 SAT 18 Dec 13:34:34 13:36:36 16° 96° (E) 13:38:37 437.505
NO-84 18 Dec 13:36:14 13:39:59 58° 230° (SW) 13:43:59 435.350 FM
Oscar 19 18 Dec 13:39:51 13:44:55 62° 259° (W) 13:50:02 437.125/150
YUBILEINY 18 Dec 13:43:31 13:51:54 46° 77° (ENE) 14:00:10 435.215
UKube-1 18 Dec 13:44:37 13:47:10 15° 94° (E) 13:49:42 .
SO-50 18 Dec 13:50:09 13:53:43 24° 111° (ESE) 13:57:18 436.795
AO-91 18 Dec 13:55:28 13:59:58 38° 261° (W) 14:04:06 145.960
BUGSAT 1 18 Dec 14:04:50 14:06:50 13° 266° (W) 14:08:51 437.445
DX 1 18 Dec 14:08:08 14:12:22 51° 101° (E) 14:16:34 434.975-435.025
AO-7 18 Dec 14:27:02 14:34:50 48° 65° (ENE) 14:42:41 .
M-CUBED/EXP-1 PRIME 18 Dec 14:32:54 14:36:40 28° 65° (ENE) 14:40:35 437.505
RS-15 18 Dec 14:54:42 15:07:00 74° 301° (WNW) 15:19:17 29.354- 29.394
Gurwin Techsat 1B 18 Dec 14:58:32 15:01:38 16° 267° (W) 15:04:45 435.225
ITAMSAT 1 18 Dec 15:01:37 15:06:27 41° 71° (ENE) 15:11:18 435.822/435.867
50 SAT 18 Dec 15:06:14 15:08:23 17° 289° (WNW) 15:10:31 437.505
UKube-1 18 Dec 15:19:19 15:23:17 37° 288° (WNW) 15:27:14 .
BEESAT 18 Dec 15:23:09 15:27:16 29° 97° (E) 15:31:23 436.000
SO-50 18 Dec 15:30:04 15:33:59 30° 307° (NW) 15:37:58 436.795
YUBILEINY 18 Dec 15:40:45 15:48:21 34° 275° (W) 15:55:54 435.215
DX 1 18 Dec 15:46:15 15:48:03 12° 295° (WNW) 15:49:50 434.975-435.025
ITUPSAT 1 18 Dec 15:54:01 15:58:46 62° 102° (ESE) 16:03:29 437.325
CUBESAT XI-V 18 Dec 15:59:12 16:03:06 25° 96° (E) 16:06:56 437.345
DOVE 4 18 Dec 16:00:34 16:05:05 30° 71° (ENE) 16:09:29 437.250
MOZHAYETS 4 18 Dec 16:00:43 16:05:19 66° 285° (WNW) 16:09:54
M-CUBED/EXP-1 PRIME 18 Dec 16:07:23 16:10:56 24° 261° (W) 16:14:39 437.505
nSIGHT-1 18 Dec 16:10:25 16:12:48 19° 31° (NNE) 16:15:11 .
AO-7 18 Dec 16:20:20 16:27:39 35° 261° (W) 16:35:04 .
ITAMSAT 1 18 Dec 16:42:10 16:46:00 21° 265° (W) 16:49:51 435.822/435.867
PCSat 18 Dec 16:42:39 16:45:31 15° 104° (ESE) 16:48:24 145.827
LilacSat-2 18 Dec 16:59:32 17:02:03 17° 69° (ENE) 17:04:36 437.200
CUTE-I 18 Dec 17:00:13 17:03:59 20° 65° (ENE) 17:07:44 437.470
BEESAT 18 Dec 17:01:01 17:04:53 25° 291° (WNW) 17:08:44 436.000
KAITUO 1B 18 Dec 17:05:09 17:06:45 12° 68° (ENE) 17:08:23 145.475/437.950
XW-2D 18 Dec 17:07:21 17:10:09 20° 70° (ENE) 17:12:59 145.860 - 145.880
ISS 18 Dec 17:07:54 17:11:06 47° 39° (NE) 17:14:17 437.550
RS-15 18 Dec 17:12:44 17:22:01 24° 327° (NNW) 17:31:14 29.354- 29.394
KKS-1 18 Dec 17:18:31 17:22:26 30° 98° (E) 17:26:20 437.445
XW-2B 18 Dec 17:22:49 17:26:08 30° 72° (ENE) 17:29:29 145.730 - 145.750
XW-2F 18 Dec 17:30:41 17:34:07 35° 74° (ENE) 17:37:37 145.980 - 146.000
ITUPSAT 1 18 Dec 17:34:00 17:36:00 13° 296° (WNW) 17:38:00 437.325
CUBESAT XI-V 18 Dec 17:36:23 17:40:21 27° 290° (WNW) 17:44:16 437.345
DOVE 4 18 Dec 17:38:10 17:42:38 28° 264° (W) 17:47:01 437.250
nSIGHT-1 18 Dec 17:46:05 17:49:08 40° 227° (SW) 17:52:09 .
STARS 18 Dec 17:48:51 17:52:27 25° 97° (E) 17:56:02 437.465
XW-2C 18 Dec 17:49:59 17:53:45 73° 78° (ENE) 17:57:34 145.795 - 145.815
O/OREOS (USA 219) 18 Dec 17:52:58 17:57:24 61° 68° (ENE) 18:01:48 437.305
SEEDS 18 Dec 17:57:44 17:59:13 12° 66° (ENE) 18:00:43 437.485
HO-68 18 Dec 18:02:47 18:09:24 42° 67° (ENE) 18:16:03 435.675
UWE-3 18 Dec 18:19:29 18:20:06 10° 66° (ENE) 18:20:43 435.000/436.395/437.385
PCSat 18 Dec 18:22:58 18:28:18 62° 298° (WNW) 18:33:41 145.827
NUDT-PHONESAT 18 Dec 18:24:43 18:28:20 57° 260° (W) 18:32:00 437.300
CUBEBUG 2 18 Dec 18:26:23 18:29:47 24° 71° (ENE) 18:33:09 437.445
CUTE 1.7 + AOD 2 18 Dec 18:26:46 18:30:48 44° 74° (ENE) 18:34:52 437.475
LilacSat-2 18 Dec 18:32:50 18:36:05 27° 264° (W) 18:39:22 437.200
KAITUO 1B 18 Dec 18:36:53 18:40:20 36° 262° (W) 18:43:51 145.475/437.950
CUTE-I 18 Dec 18:38:28 18:43:37 47° 260° (W) 18:48:47 437.470
XW-2D 18 Dec 18:41:11 18:44:10 22° 265° (W) 18:47:10 145.860 - 145.880
ISS 18 Dec 18:45:38 18:47:16 13° 233° (SW) 18:48:52 437.550
BEESAT 3 18 Dec 18:55:16 18:59:07 52° 116° (ESE) 19:03:01 437.485
KKS-1 18 Dec 18:55:30 18:58:45 20° 292° (WNW) 19:02:00 437.445
XW-2B 18 Dec 18:58:10 19:00:19 15° 266° (W) 19:02:30 145.730 - 145.750
AO-73 18 Dec 19:03:20 19:05:45 15° 68° (ENE) 19:08:11 145.935
XW-2F 18 Dec 19:06:46 19:08:19 12° 267° (W) 19:09:54 145.980 - 146.000
FALCONSAT 3 18 Dec 19:14:46 19:16:47 14° 150° (SSE) 19:18:49 435.103
XW-2A 18 Dec 19:21:59 19:25:09 43° 75° (ENE) 19:28:23 145.665 - 145.685
STARS 18 Dec 19:25:09 19:28:39 24° 291° (WNW) 19:32:08 437.465
SEEDS 18 Dec 19:30:17 19:34:23 51° 260° (W) 19:38:33 437.485
AAUSAT CUBESAT 2 18 Dec 19:34:57 19:39:05 70° 76° (ENE) 19:43:16 437.432
RS-15 18 Dec 19:35:46 19:41:16 14° 4° (N) 19:46:41 29.354- 29.394
BEESAT 2 18 Dec 19:46:22 19:50:14 50° 115° (ESE) 19:54:10 435.950
STRAND 1 18 Dec 19:47:28 19:52:29 56° 101° (E) 19:57:28 437.568
HO-68 18 Dec 19:50:47 19:57:07 33° 263° (W) 20:03:29 435.675
UWE-3 18 Dec 19:51:59 19:56:02 54° 260° (W) 20:00:06 435.000/436.395/437.385
CUBEBUG 2 18 Dec 20:03:05 20:06:19 21° 265° (W) 20:09:31 437.445
CUTE 1.7 + AOD 2 18 Dec 20:04:57 20:06:49 13° 268° (W) 20:08:40 437.475
ZACube-1 18 Dec 20:06:25 20:10:32 76° 259° (WSW) 20:14:42 437.345
FO-29 18 Dec 20:16:17 20:22:03 34° 95° (E) 20:27:13 435.910
Oscar 11 18 Dec 20:17:41 20:21:59 79° 77° (ENE) 20:26:19 .
BEESAT 3 18 Dec 20:35:00 20:36:56 13° 312° (NW) 20:38:52 437.485
AO-73 18 Dec 20:37:53 20:41:39 35° 262° (W) 20:45:28 145.935
AO-85 18 Dec 20:41:53 20:45:32 42° 114° (ESE) 20:49:21 145.980
Max Valier Satellite 18 Dec 20:42:02 20:44:05 15° 69° (ENE) 20:46:09 145.860
FALCONSAT 3 18 Dec 20:51:51 20:55:24 49° 163° (SSE) 20:59:00 435.103
EO-88 18 Dec 20:58:47 21:01:01 16° 69° (ENE) 21:03:17 145.990 - 145.960
BEESAT 2 18 Dec 21:26:06 21:28:13 14° 312° (NW) 21:30:22 435.950
DELFI C3 18 Dec 21:28:03 21:32:02 84° 258° (WSW) 21:36:02 145.870
STRAND 1 18 Dec 21:28:15 21:31:09 15° 296° (WNW) 21:34:02 437.568
TIGRISAT 18 Dec 21:42:55 21:46:41 27° 97° (E) 21:50:30 435.000
UNISAT 6 18 Dec 21:47:18 21:51:20 34° 98° (E) 21:55:25 437.425
RS-15 18 Dec 21:49:39 21:59:39 30° 39° (NE) 22:09:10 29.354- 29.394
FO-29 18 Dec 22:01:19 22:07:00 32° 294° (WNW) 22:12:07 435.910
Max Valier Satellite 18 Dec 22:14:26 22:17:37 28° 263° (W) 22:20:50 145.860
AO-85 18 Dec 22:23:53 22:26:10 15° 313° (NW) 22:28:31 145.980
SO-50 18 Dec 22:24:51 22:26:51 12° 45° (NE) 22:28:52 436.795
FALCONSAT 3 18 Dec 22:30:43 22:34:25 89° 359° (N) 22:38:07 435.103
EO-88 18 Dec 22:31:20 22:34:25 26° 264° (W) 22:37:30 145.990 - 145.960
PRISM 18 Dec 22:35:37 22:39:12 29° 98° (E) 22:42:42 437.425
LO-87 18 Dec 22:46:14 22:49:35 42° 75° (ENE) 22:52:56 145.935 - 145.965
AIST 2D 18 Dec 23:05:01 23:07:49 22° 96° (E) 23:10:36 435.315
ESTCUBE 1 18 Dec 23:07:13 23:11:39 63° 75° (ENE) 23:16:09 437.505/2401.250
TIGRISAT 18 Dec 23:19:45 23:23:12 23° 290° (WNW) 23:26:42 435.000
UNISAT 6 18 Dec 23:24:42 23:27:46 19° 291° (WNW) 23:30:53 437.425
POLYITAN 1 18 Dec 23:28:29 23:30:32 13° 93° (E) 23:32:35 437.675
DUCHIFAT 1 18 Dec 23:51:03 23:54:01 19° 95° (E) 23:56:58 145.980
QB50P2 18 Dec 23:53:09 23:56:54 30° 97° (E) 00:00:38 145.880/145.840
RS-15 19 Dec 00:01:48 00:13:31 82° 244° (WSW) 00:24:35 29.354- 29.394
SO-50 19 Dec 00:03:09 00:07:52 81° 243° (WSW) 00:12:37 436.795
FALCONSAT 3 19 Dec 00:09:50 00:13:30 66° 193° (SSW) 00:17:09 435.103
PRISM 19 Dec 00:11:24 00:14:12 18° 292° (WNW) 00:17:00 437.425
NANOSAT C BR1 19 Dec 00:19:22 00:23:28 48° 100° (E) 00:27:32 145.865
VELOX 1 19 Dec 00:19:39 00:23:59 53° 74° (ENE) 00:28:19 145.980
SPROUT 19 Dec 00:23:21 00:27:35 78° 258° (WSW) 00:31:50 437.525
EO-79 19 Dec 00:37:54 00:42:08 84° 283° (WNW) 00:46:22 145.935-145.965
AIST 2D 19 Dec 00:38:24 00:40:47 17° 290° (WNW) 00:43:09 435.315
DX 1 19 Dec 01:00:38 01:04:28 30° 71° (ENE) 01:08:17 434.975-435.025
POLYITAN 1 19 Dec 01:02:27 01:06:27 42° 287° (WNW) 01:10:28 437.675
DUCHIFAT 1 19 Dec 01:25:59 01:29:39 29° 289° (WNW) 01:33:18 145.980
50 SAT 19 Dec 01:27:44 01:30:50 64° 77° (ENE) 01:33:59 437.505
QB50P2 19 Dec 01:29:26 01:32:26 19° 291° (WNW) 01:35:26 145.880/145.840
